OE7SBH-WX Weather Reports


Display with metric or nautical units.
time (UTC)temp
F
wind
direction
speed
MPH
gust
MPH
rain 1hr
in
rain 24hr
in
rain mn
in
humidity
%
barometer
mb
20260503223519 59 340 1.0 2.0 0.00 0.00 0.00 50 1020.1
20260503222553 60 316 1.0 2.0 0.00 0.00 0.00 46 1020.0
20260503221553 60 284 0.0 1.0 0.00 0.00 0.00 47 1019.9
20260503220538 59 268 0.0 2.0 0.00 0.00 0.00 51 1019.8
20260503215518 61 268 0.0 1.0 0.00 0.00 0.00 46 1019.7
20260503214533 61 259 1.0 2.0 0.00 0.00 0.00 46 1019.7
20260503213528 62 286 1.0 1.0 0.00 0.00 0.00 44 1019.4
20260503212529 61 309 0.0 1.0 0.00 0.00 0.00 45 1019.5
20260503211614 61 309 1.0 2.0 0.00 0.00 0.00 46 1019.4
20260503210542 62 309 1.0 2.0 0.00 0.00 0.00 44 1019.2
20260503205518 62 330 1.0 3.0 0.00 0.00 0.00 43 1019.2
20260503204533 64 339 0.0 2.0 0.00 0.00 0.00 40 1019.1
20260503203522 64 294 2.0 2.0 0.00 0.00 0.00 39 1019.1
20260503202522 65 339 2.0 3.0 0.00 0.00 0.00 37 1019.1
20260503201518 64 319 2.0 3.0 0.00 0.00 0.00 40 1019.1
20260503200533 64 342 2.0 3.0 0.00 0.00 0.00 40 1018.9
20260503195517 65 312 1.0 2.0 0.00 0.00 0.00 38 1018.8
20260503194526 64 338 1.0 3.0 0.00 0.00 0.00 39 1018.8
20260503193527 65 337 3.0 6.0 0.00 0.00 0.00 37 1018.5
20260503192549 65 345 2.0 4.0 0.00 0.00 0.00 37 1018.4
20260503191526 66 328 1.0 2.0 0.00 0.00 0.00 37 1018.4
20260503190533 67 324 1.0 2.0 0.00 0.00 0.00 34 1018.4
20260503185522 68 358 1.0 2.0 0.00 0.00 0.00 34 1018.3
20260503184521 69 114 1.0 3.0 0.00 0.00 0.00 33 1018.2
20260503183518 69 278 1.0 2.0 0.00 0.00 0.00 32 1018.1
20260503182533 68 315 1.0 2.0 0.00 0.00 0.00 35 1017.8
20260503181534 68 322 1.0 2.0 0.00 0.00 0.00 36 1017.8
20260503180533 69 331 1.0 2.0 0.00 0.00 0.00 37 1017.5
20260503175522 70 0.0 0.0 0.00 0.00 0.00 34 1017.5
20260503174522 71 337 0.0 1.0 0.00 0.00 0.00 33 1017.5
20260503173519 72 13 0.0 2.0 0.00 0.00 0.00 32 1017.4
20260503172533 74 248 1.0 2.0 0.00 0.00 0.00 29 1017.3
20260503171534 75 277 2.0 4.0 0.00 0.00 0.00 25 1017.3
20260503170533 77 242 2.0 4.0 0.00 0.00 0.00 21 1017.2
20260503150522 82 173 1.0 4.0 0.00 0.00 0.00 16 1017.0
20260503130522 82 167 8.0 14.0 0.00 0.00 0.00 14 1018.1
20260503110553 78 90 1.0 3.0 0.00 0.00 0.00 24 1019.4
20260503081518 67 32 1.0 2.0 0.00 0.00 0.00 43 1022.5
20260503080532 65 356 1.0 3.0 0.00 0.00 0.00 44 1022.6
20260503072522 63 45 0.0 1.0 0.00 0.00 0.00 50 1023.0
20260503071519 60 23 0.0 1.0 0.00 0.00 0.00 53 1023.1
20260503070533 59 68 1.0 2.0 0.00 0.00 0.00 56 1023.3
20260503054522 49 333 0.0 1.0 0.00 0.00 0.00 76 1023.5
20260503053518 48 335 0.0 1.0 0.00 0.00 0.00 77 1023.5
20260503052532 47 334 0.0 1.0 0.00 0.00 0.00 80 1023.6
20260503051528 47 0.0 0.0 0.00 0.00 0.00 79 1023.7
20260503050530 47 0.0 0.0 0.00 0.00 0.00 79 1023.7
20260503045538 46 333 1.0 1.0 0.00 0.00 0.00 81 1023.7
20260503044607 47 0.0 0.0 0.00 0.00 0.00 78 1023.7
20260503043534 47 335 0.0 1.0 0.00 0.00 0.00 79 1023.7
20260503042553 46 0.0 0.0 0.00 0.00 0.00 78 1023.8
20260503041521 46 333 0.0 1.0 0.00 0.00 0.00 79 1023.7
20260503040523 46 333 0.0 1.0 0.00 0.00 0.00 80 1023.6
20260503035519 47 0.0 0.0 0.00 0.00 0.00 77 1023.6
20260503034553 46 333 0.0 1.0 0.00 0.00 0.00 79 1023.6
20260503033533 47 338 0.0 1.0 0.00 0.00 0.00 80 1023.5
20260503032553 47 333 0.0 1.0 0.00 0.00 0.00 77 1023.6
20260503031528 47 337 0.0 1.0 0.00 0.00 0.00 77 1023.6
20260503030529 46 338 1.0 2.0 0.00 0.00 0.00 77 1023.7
20260503025545 48 335 0.0 1.0 0.00 0.00 0.00 76 1023.6
20260503024533 48 338 1.0 2.0 0.00 0.00 0.00 74 1023.5
20260503023522 48 108 1.0 2.0 0.00 0.00 0.00 75 1023.5
20260503022530 48 28 0.0 1.0 0.00 0.00 0.00 73 1023.6
20260503021519 49 0.0 0.0 0.00 0.00 0.00 73 1023.6
20260503020533 49 330 1.0 1.0 0.00 0.00 0.00 71 1023.6
20260503015553 49 326 1.0 3.0 0.00 0.00 0.00 70 1023.5
20260503014533 50 270 1.0 3.0 0.00 0.00 0.00 69 1023.5
20260503013548 50 342 1.0 2.0 0.00 0.00 0.00 68 1023.5
20260503012530 51 342 0.0 1.0 0.00 0.00 0.00 67 1023.5
20260503011518 51 340 2.0 3.0 0.00 0.00 0.00 65 1023.6
20260503010527 51 339 0.0 1.0 0.00 0.00 0.00 66 1023.7
20260503005533 52 337 1.0 2.0 0.00 0.00 0.00 64 1023.6
20260503004533 51 349 2.0 3.0 0.00 0.00 0.00 65 1023.6
20260503003542 52 331 0.0 2.0 0.00 0.00 0.00 63 1023.6
20260503002522 53 339 2.0 3.0 0.00 0.00 0.00 62 1023.6
20260503001519 54 301 0.0 2.0 0.00 0.00 0.00 59 1023.7
20260503000533 54 306 2.0 3.0 0.00 0.00 0.00 59 1023.7
20260502235533 55 3 1.0 4.0 0.00 0.00 0.00 58 1023.8
20260502234533 56 169 2.0 7.0 0.00 0.00 0.00 55 1023.8
20260502233548 56 175 3.0 6.0 0.00 0.00 0.00 56 1024.0
20260502232630 56 173 4.0 8.0 0.00 0.00 0.00 53 1024.1
20260502231518 57 171 1.0 2.0 0.00 0.00 0.00 55 1024.2
20260502230527 56 274 0.0 1.0 0.00 0.00 0.00 56 1024.2
20260502225554 57 141 0.0 2.0 0.00 0.00 0.00 55 1024.2
20260502224533 57 242 1.0 3.0 0.00 0.00 0.00 54 1024.3